Погода в Оуэн-Саунд

Канада     44°34′03″N   80°56′38″W
темп.,
°C
ветер,
м/с
пор.,
м/с
влажн.,
%
обл.,
%
осадки,
мм/ч
давл.,
гПа
погр.,
м
15 мая, сб
сб1523:00+6юз11652 0.0 102411
02:00+5ююз22615 0.0 102424
05:00+5ююз226128 0.0 102524
08:00+9ююз22705 0.0 102584
11:00+16з23605 0.0 1025672
14:00+18сз33510 0.1 10241228
17:00+17зсз33525 0.0 1023903
20:00+13ссв017457 0.0 102310
16 мая, вс
вс1623:00+9ю3379100 0.0 102338
02:00+10зюз2479100 0.0 102383
05:00+7зюз348954 0.0 102462
08:00+10зсз358672 0.0 1025195
11:00+13с2281100 0.9 1025165
14:00+13св228399 1.8 1025201
17:00+15всв227066 0.3 1023831
20:00+12св11845 0.3 102313
17 мая, пн
пн1723:00+9юв11915 0.0 102410
02:00+8ююв11932 0.0 102410
05:00+8ююв22940 0.0 102410
08:00+11ю23870 0.0 1025140
11:00+16юз22671 0.0 1024904
14:00+19з335944 0.0 10231568
17:00+18зсз446643 0.1 1023716
20:00+14ююз22821 0.1 102314
18 мая, вт
вт1823:00+11ю22873 0.0 102510
02:00+10ю22852 0.0 102515
05:00+9ю22845 0.0 102617
08:00+13ю22775 0.0 102792
11:00+20вюв01635 0.0 1026607
14:00+22ююз22555 0.0 10251432
17:00+21ссз126118 0.0 10241015
20:00+17ссв238613 0.1 102552
19 мая, ср
ср1923:00+14юв339164 0.0 102546
02:00+12ю36935 0.0 102589
05:00+11ююв378137 0.0 1025103
08:00+15ю4107596 0.0 1026251
11:00+21ю5768100 0.0 1025654
14:00+21юз6878100 0.4 10251015
17:00+18ююз41084100 0.1 1024642
20:00+17ю41098100 2.8 1024555